Terminal Aerodrome Forecast
Issued by NWS Cleveland, OH

Home | Current Version | Previous Version | Text Only | Print | Product List | Glossary Off
Versions: 1 2 3 4 5 6 7 8 9 10 11 12 13 14 15 16 17 18 19 20 21 22 23 24

491
FTUS41 KCLE 240520
TAFCLE
TAF
KCLE 240520Z 2406/2512 VRB02KT P6SM SKC
     FM241600 27008KT P6SM SCT250
     FM250100 20003KT P6SM SKC=

USA.gov is the U.S. government's official web portal to all federal, state and local government web resources and services.